User: anonymous   Login
Location: Lynch Observatory
(39.9540°N, 75.1861°W)
Time: 17:57:33
(UTC-04:00)
Language:

QB50P2 - Orbit

View from above orbital plane
View from above orbital plane
View from above satellite
View from above satellite

Ground track
Ground track

The orbit data is extracted from the following two-line orbital elements,

1 40032U 14033Y   24115.41512661  .00014818  00000-0  12737-2 0  9993
2 40032  98.0044  66.4988 0008929 349.5100  10.5933 14.97496923535140
Epoch (UTC): 24 April 2024 09:57:46
Eccentricity: 0.0008929
inclination: 98.0044°
perigee height: 568 km
apogee height: 581 km
right ascension of ascending node: 66.4988°
argument of perigee: 349.5100°
revolutions per day: 14.97496923
mean anomaly at epoch: 10.5933°
orbit number at epoch: 53514

The dashed part of the orbit path shows where the satellite is in the earth's shadow,  

DLR